Location: Franzen
(48.6167°N, 15.3833°E)
Time: 10:43:09
(UTC+00:00)

Genesis I - Pass Details

Date: 22 April 2021
Orbit: 482 x 537 km, 64.5° (Epoch: 16 May)

Event Time Altitude Azimuth Distance (km) Brightness Sun altitude
Rises 19:08:37 0° 321° (NW) 2,672 8.4 -10.9°
Reaches altitude 10° 19:10:49 10° 323° (NW) 1,786 7.2 -11.2°
Maximum altitude 19:14:50 79° 51° (NE) 550 3.2 -11.7°
Enters shadow 19:17:43 18° 136° (SE) 1,340 4.7 -12.1°
